Starlink 11728

operational
NORAD ID: 64323 Int'l Des: 2025-124 Owner: SPXS Country: US Constellation: starlink
LEOCIRCULAR

Über Starlink 11728

Beschreibung wird geladen...

Live-Position

3D-Globus wird geladen...

Nächste Überflüge

Höhenverlauf

Altitude vs Time

uPlot chart will show altitude changes over time

Zweizeiliger Elementsatz

1 64323U 25124G 25261.28412832 .00181194 00000-0 13845-2 0 9995
2 64323 42.9989 348.0473 0001438 274.7934 85.2770 15.70848372 15721
Epoch: 18. Sept. 2025 • Age: 19 hours

Aktueller Status

Höhe 362.0 km
Geschwindigkeit 7.69 km/s
Subsatellitenpunkt -27.04°S, 166.93°E
Startdatum 10. Juni 2025
Alter 0.2 years
Typ internet

Technische Details

Klassifizierung Payload
Masse 960.00 kg
Trockenmasse 910.00 kg
Gesamtmasse 960.00 kg
Länge 0.30 m
Durchmesser 4.10 m
Spannweite 29.00 m
Form Box + pan
Hersteller SPXS
Bus-Typ Starlink V2MD
Phasenstatus In Orbit
Besitzer/Staat SPXS/US

Große Konstellationen

Loading constellations...